WZ9ZZZ-1 Weather Reports


time (UTC)temp
C
wind
direction
speed
KPH
gust
KPH
rain 1hr
cm
rain 24hr
cm
rain mn
cm
humidity
%
barometer
mb
20260504223322 25 247 8.0 11.3 0.00 0.00 0.00 71 1015.7
20260504222819 25 222 9.7 12.9 0.00 0.00 0.00 71 1015.9
20260504222316 25 153 3.2 3.2 0.00 0.00 0.00 72 1015.9
20260504221814 25 129 1.6 1.6 0.00 0.00 0.00 72 1015.8
20260504221310 25 255 8.0 9.7 0.00 0.00 0.00 71 1016.1
20260504220807 25 230 3.2 4.8 0.00 0.00 0.00 71 1016.2
20260504220304 25 170 4.8 9.7 0.00 0.00 0.00 70 1015.9
20260504215802 25 176 8.0 11.3 0.00 0.00 0.00 70 1015.9
20260504215258 25 284 4.8 9.7 0.00 0.00 0.00 70 1016.0
20260504214754 25 164 1.6 1.6 0.00 0.00 0.00 70 1016.2
20260504214250 25 106 1.6 3.2 0.00 0.00 0.00 69 1016.0
20260504213747 25 194 1.6 3.2 0.00 0.00 0.00 69 1016.5
20260504213243 25 250 1.6 3.2 0.00 0.00 0.00 69 1016.3
20260504212741 25 214 3.2 8.0 0.00 0.00 0.00 68 1016.2
20260504212237 25 212 4.8 9.7 0.00 0.00 0.00 69 1016.4
20260504211735 25 188 3.2 3.2 0.00 0.00 0.00 68 1016.6
20260504211231 25 203 4.8 8.0 0.00 0.00 0.00 68 1016.6
20260504210728 25 250 11.3 12.9 0.00 0.00 0.00 67 1016.4
20260504210225 25 148 3.2 4.8 0.00 0.00 0.00 68 1016.6
20260504205722 25 234 9.7 11.3 0.00 0.00 0.00 67 1016.7
20260504205220 26 198 3.2 4.8 0.00 0.00 0.00 67 1016.4
20260504204718 26 213 4.8 8.0 0.00 0.00 0.00 66 1016.5
20260504204216 26 228 8.0 12.9 0.00 0.00 0.00 65 1016.9
20260504203715 26 190 1.6 3.2 0.00 0.00 0.00 65 1016.9
20260504203212 27 135 4.8 9.7 0.00 0.00 0.00 62 1016.8
20260504202712 26 184 1.6 1.6 0.00 0.00 0.00 65 1017.2
20260504202210 27 226 6.4 9.7 0.00 0.00 0.00 64 1017.2
20260504201706 26 282 4.8 11.3 0.00 0.00 0.00 65 1017.0
20260504201204 26 207 3.2 4.8 0.00 0.00 0.00 66 1017.0
20260504200701 27 133 4.8 4.8 0.00 0.00 0.00 63 1017.1
20260504200157 27 161 3.2 3.2 0.00 0.00 0.00 62 1017.2
20260504195653 26 119 3.2 3.2 0.00 0.00 0.00 63 1017.3
20260504195150 26 258 6.4 11.3 0.00 0.00 0.00 64 1017.5
20260504194647 27 88 4.8 9.7 0.00 0.00 0.00 62 1017.4
20260504194142 26 268 6.4 11.3 0.00 0.00 0.00 63 1017.6
20260504193639 26 145 1.6 3.2 0.00 0.00 0.00 64 1017.3
20260504193137 27 256 8.0 9.7 0.00 0.00 0.00 63 1017.7
20260504192635 27 139 3.2 4.8 0.00 0.00 0.00 63 1017.7
20260504192133 26 158 3.2 3.2 0.00 0.00 0.00 64 1017.6
20260504191631 26 273 9.7 12.9 0.00 0.00 0.00 65 1017.7
20260504191127 26 159 1.6 1.6 0.00 0.00 0.00 63 1017.6
20260504190623 27 260 1.6 3.2 0.00 0.00 0.00 62 1017.7
20260504190120 26 246 9.7 14.5 0.00 0.00 0.00 65 1018.0
20260504185616 26 230 8.0 9.7 0.00 0.00 0.00 64 1018.1
20260504185113 26 178 0.0 1.6 0.00 0.00 0.00 62 1017.9
20260504184609 26 194 6.4 8.0 0.00 0.00 0.00 62 1017.8
20260504184104 26 235 6.4 8.0 0.00 0.00 0.00 63 1017.6
20260504183602 26 250 11.3 14.5 0.00 0.00 0.00 61 1017.7
20260504183059 26 244 4.8 9.7 0.00 0.00 0.00 64 1017.9
20260504182556 26 182 0.0 1.6 0.00 0.00 0.00 64 1018.0
20260504182054 26 232 4.8 8.0 0.00 0.00 0.00 64 1018.2
20260504181550 26 111 8.0 12.9 0.00 0.00 0.00 64 1018.1
20260504181049 26 169 1.6 1.6 0.00 0.00 0.00 62 1018.3
20260504180547 26 218 4.8 8.0 0.00 0.00 0.00 62 1018.5
20260504180046 26 195 3.2 4.8 0.00 0.00 0.00 63 1018.3
20260504175543 26 268 8.0 9.7 0.00 0.00 0.00 66 1018.3
20260504175040 26 293 3.2 4.8 0.00 0.00 0.00 63 1018.2
20260504174538 25 263 4.8 8.0 0.00 0.00 0.00 63 1018.6
20260504174034 26 223 6.4 8.0 0.00 0.00 0.00 62 1018.5
20260504173531 26 204 4.8 4.8 0.00 0.00 0.00 63 1018.9
20260504173028 26 272 9.7 11.3 0.00 0.00 0.00 64 1018.7
20260504172524 26 294 11.3 16.1 0.00 0.00 0.00 62 1018.7
20260504172021 26 177 3.2 3.2 0.00 0.00 0.00 63 1018.8
20260504171518 26 147 3.2 3.2 0.00 0.00 0.00 64 1018.9
20260504171015 25 251 6.4 12.9 0.00 0.00 0.00 65 1019.1
20260504170510 25 279 4.8 9.7 0.00 0.00 0.00 64 1019.2
20260504160431 25 162 6.4 9.7 0.00 0.00 0.00 66 1019.4
20260504150855 23 260 4.8 4.8 0.00 0.00 0.00 69 1019.5
20260504150351 23 211 11.3 14.5 0.00 0.00 0.00 68 1019.3
20260504141321 23 173 0.0 1.6 0.00 0.00 0.00 71 1019.3
20260504140818 22 128 0.0 1.6 0.00 0.00 0.00 71 1019.4
20260504140314 22 153 1.6 1.6 0.00 0.00 0.00 71 1019.3
20260504130743 20 180 1.6 1.6 0.00 0.00 0.00 72 1019.5
20260504130238 20 180 1.6 1.6 0.00 0.00 0.00 72 1019.5
20260504120202 16 180 0.0 0.0 0.00 0.00 0.00 80 1019.0
20260504110630 16 181 0.0 0.0 0.00 0.00 0.00 80 1019.0
20260504110125 16 181 0.0 0.0 0.00 0.00 0.00 80 1019.0
20260504100551 16 181 0.0 0.0 0.00 0.00 0.00 82 1019.1
20260504081945 17 180 0.0 0.0 0.00 0.00 0.00 76 1020.0
20260504081442 17 180 0.0 0.0 0.00 0.00 0.00 76 1019.8
20260504080938 17 180 0.0 0.0 0.00 0.00 0.00 75 1020.3
20260504080435 17 180 0.0 0.0 0.00 0.00 0.00 75 1020.1
20260504070403 17 185 0.0 0.0 0.00 0.00 0.00 75 1020.7
20260504050750 18 154 0.0 0.0 0.00 0.00 0.00 72 1021.8
20260504050247 18 155 0.0 0.0 0.00 0.00 0.00 71 1021.7
20260504045745 18 155 0.0 0.0 0.00 0.00 0.00 71 1021.8
20260504045239 18 159 0.0 0.0 0.00 0.00 0.00 71 1022.1
20260504044737 18 147 0.0 0.0 0.00 0.00 0.00 70 1022.1
20260504044234 18 208 0.0 0.0 0.00 0.00 0.00 70 1022.3
20260504043731 18 209 1.6 1.6 0.00 0.00 0.00 70 1022.0
20260504043228 18 210 0.0 3.2 0.00 0.00 0.00 70 1022.0
20260504042726 18 192 0.0 0.0 0.00 0.00 0.00 70 1022.0
20260504042222 18 192 0.0 0.0 0.00 0.00 0.00 70 1021.9
20260504041718 18 192 0.0 0.0 0.00 0.00 0.00 70 1022.0
20260504041214 18 192 0.0 0.0 0.00 0.00 0.00 69 1021.6
20260504040711 18 192 0.0 0.0 0.00 0.00 0.00 68 1022.0
20260504040208 19 192 0.0 1.6 0.00 0.00 0.00 67 1022.1
20260504035704 19 192 0.0 0.0 0.00 0.00 0.00 67 1022.1
20260504035202 19 192 3.2 3.2 0.00 0.00 0.00 67 1022.1
20260504034659 19 193 0.0 0.0 0.00 0.00 0.00 68 1022.2
20260504034156 18 193 0.0 0.0 0.00 0.00 0.00 68 1022.0
20260504033654 18 193 0.0 0.0 0.00 0.00 0.00 68 1022.2
20260504033151 18 193 0.0 0.0 0.00 0.00 0.00 68 1021.9
20260504032647 19 193 0.0 0.0 0.00 0.00 0.00 67 1022.0
20260504032145 19 193 0.0 0.0 0.00 0.00 0.00 66 1022.3
20260504031642 20 193 0.0 0.0 0.00 0.00 0.00 65 1021.9
20260504031138 19 193 0.0 0.0 0.00 0.00 0.00 65 1021.9
20260504030634 20 193 0.0 0.0 0.00 0.00 0.00 65 1022.0
20260504030131 20 193 0.0 0.0 0.00 0.00 0.00 64 1022.0
20260504025628 20 193 0.0 0.0 0.00 0.00 0.00 63 1022.0
20260504025125 20 192 0.0 0.0 0.00 0.00 0.00 63 1022.1
20260504024622 20 193 1.6 1.6 0.00 0.00 0.00 63 1022.2
20260504024119 20 193 1.6 1.6 0.00 0.00 0.00 63 1022.2
20260504023615 20 201 3.2 3.2 0.00 0.00 0.00 63 1022.0
20260504023111 20 210 1.6 1.6 0.00 0.00 0.00 62 1022.0
20260504022608 20 193 0.0 0.0 0.00 0.00 0.00 62 1021.9
20260504022104 20 192 1.6 1.6 0.00 0.00 0.00 62 1022.0
20260504021602 20 195 1.6 3.2 0.00 0.00 0.00 61 1022.0
20260504021058 21 216 3.2 3.2 0.00 0.00 0.00 60 1022.1
20260504020555 21 171 1.6 3.2 0.00 0.00 0.00 60 1022.1
20260504020051 21 196 0.0 0.0 0.00 0.00 0.00 60 1022.0
20260504015548 21 225 1.6 1.6 0.00 0.00 0.00 60 1022.0
20260504015044 21 217 3.2 3.2 0.00 0.00 0.00 60 1022.2
20260504014540 21 208 4.8 4.8 0.00 0.00 0.00 60 1022.1
20260504014038 21 223 3.2 4.8 0.00 0.00 0.00 60 1022.0
20260504013535 21 199 1.6 1.6 0.00 0.00 0.00 60 1021.8
20260504013032 21 174 0.0 0.0 0.00 0.00 0.00 60 1021.9
20260504012530 21 183 3.2 3.2 0.00 0.00 0.00 59 1022.0
20260504012027 21 177 0.0 0.0 0.00 0.00 0.00 59 1022.0
20260504011524 21 194 1.6 1.6 0.00 0.00 0.00 58 1021.8
20260504011020 21 223 3.2 4.8 0.00 0.00 0.00 57 1021.8
20260504010516 21 164 3.2 3.2 0.00 0.00 0.00 57 1021.7
20260504010012 22 205 1.6 1.6 0.00 0.00 0.00 57 1022.0
20260504005509 22 201 4.8 8.0 0.00 0.00 0.00 56 1021.8
20260504005006 22 203 1.6 3.2 0.00 0.00 0.00 56 1021.8
20260504004504 22 197 3.2 4.8 0.00 0.00 0.00 55 1021.8
20260504004001 22 148 1.6 3.2 0.00 0.00 0.00 55 1022.0
20260504003456 22 218 6.4 8.0 0.00 0.00 0.00 54 1021.8
20260504002954 22 220 8.0 11.3 0.00 0.00 0.00 54 1021.9
20260504002451 22 239 3.2 4.8 0.00 0.00 0.00 54 1021.9
20260504001948 22 190 4.8 4.8 0.00 0.00 0.00 53 1021.9
20260504001445 22 186 4.8 9.7 0.00 0.00 0.00 53 1022.0
20260504000942 22 197 3.2 4.8 0.00 0.00 0.00 53 1021.9
20260504000439 23 185 4.8 4.8 0.00 0.00 0.00 53 1021.9
20260503235936 23 250 3.2 4.8 0.00 0.00 0.00 52 1021.9
20260503235434 23 165 0.0 1.6 0.00 0.00 0.00 51 1021.9
20260503234931 23 182 3.2 4.8 0.00 0.00 0.00 50 1022.3
20260503234429 23 167 1.6 3.2 0.00 0.00 0.00 49 1022.1
20260503233927 23 183 1.6 3.2 0.00 0.00 0.00 49 1022.4
20260503233423 23 216 8.0 9.7 0.00 0.00 0.00 49 1022.5
20260503232919 23 174 1.6 3.2 0.00 0.00 0.00 47 1022.3
20260503232416 24 178 4.8 8.0 0.00 0.00 0.00 47 1022.1
20260503231914 24 218 8.0 9.7 0.00 0.00 0.00 47 1022.3
20260503231411 24 134 0.0 0.0 0.00 0.00 0.00 47 1022.6
20260503230908 25 139 0.0 1.6 0.00 0.00 0.00 46 1022.5
20260503230404 25 144 3.2 3.2 0.00 0.00 0.00 47 1022.4
20260503225902 25 130 1.6 1.6 0.00 0.00 0.00 48 1022.5
20260503225358 25 112 1.6 1.6 0.00 0.00 0.00 48 1022.6
20260503224854 25 113 1.6 1.6 0.00 0.00 0.00 47 1022.5
20260503224351 25 113 1.6 1.6 0.00 0.00 0.00 47 1022.5
20260503223849 25 81 3.2 4.8 0.00 0.00 0.00 46 1022.7